Regional Weather Roundup
Issued by NWS Cleveland, OH

Home | Current Version | Previous Version | Graphics & Text | Print | Product List | Glossary On
Versions: 1 2 3 4 5 6 7 8 9 10 11 12 13 14 15 16 17 18 19 20 21 22 23 24 25 26 27 28 29 30 31 32 33 34 35 36 37 38 39 40 41 42 43 44 45 46 47 48 49 50
000
ASUS41 KCLE 230200
RWRCLE
OHIO REGIONAL WEATHER ROUNDUP
NATIONAL WEATHER SERVICE WILMINGTON, OH
1000 PM EDT WED OCT 22 2014

NOTE: "FAIR" INDICATES FEW OR NO CLOUDS BELOW 12,000 FEET WITH NO
SIGNIFICANT WEATHER AND/OR OBSTRUCTIONS TO VISIBILITY.

OHZ001>008-015>018-024>027-034-035-043-044-230300-
   NORTHWEST OHIO

CITY           SKY/WX    TMP DP  RH WIND       PRES   REMARKS
DEFIANCE       CLEAR     38  35  89 CALM      30.29S
FINDLAY        CLOUDY    47  40  76 NW7       30.27S
TOLEDO EXPRESS MOCLDY    45  40  82 NW5       30.28S
TOLEDO METCALF CLOUDY    48  42  80 W3        30.28S
LIMA           MOCLDY    42  39  89 NW3       30.28S
$$

OHZ009>014-019>023-028>033-038-089-230300-
   NORTHEAST OHIO

CITY           SKY/WX    TMP DP  RH WIND       PRES   REMARKS
CLE-HOPKINS    CLOUDY    50  44  80 N12       30.26S
CLE-LAKEFRONT  CLOUDY    52  45  77 N18       30.23S
CUY CO. ARPT   CLOUDY    52  48  87 N14       30.25R
LORAIN-ELYRIA  CLOUDY    50  44  80 N8        30.25S
ASHTABULA      CLOUDY    44  43  96 CALM      30.23S
AKRON-CANTON   PTCLDY    42  38  85 NW6       30.22S
WOOSTER        NOT AVBL
MANSFIELD      MOCLDY    45  42  89 CALM      30.24F
YOUNGSTOWN     MOCLDY    44  41  89 NW6       30.21S
$$

OHZ042-051>053-060>062-070>072-077>081-230300-
  SOUTHWEST OHIO

CITY           SKY/WX    TMP DP  RH WIND       PRES   REMARKS
CINC-COVINGTON PTCLDY    49  39  68 NE6       30.27S
CINC-LUNKEN    CLOUDY    50  40  68 NE8       30.29S
HAMILTON       CLOUDY    50  41  71 NE5       30.29S
DAYTON         NOT AVBL
WRIGHT-PAT AFB CLOUDY    48  40  74 VRB2      30.27F
DAYTON GENERAL CLOUDY    48  40  73 NE8       30.27F
WILMINGTON     CLOUDY    47  39  74 N3        30.27S
$$

OHZ036-037-039>041-045>050-054>059-063>069-073>076-082>088-230300-
  CENTRAL AND SOUTHEAST OHIO

CITY           SKY/WX    TMP DP  RH WIND       PRES   REMARKS
COLUMBUS       CLOUDY    49  41  74 NW7       30.25S
OSU AIRPORT    CLOUDY    48  41  76 NW5       30.26S
BOLTON FIELD   NOT AVBL
RICKENBACK AFB NOT AVBL
NEWARK         CLOUDY    49  41  74 CALM      30.24F
MARION         CLOUDY    46  40  79 NW7       30.26S
LANCASTER      CLOUDY    49  43  80 CALM      30.25F
ZANESVILLE     CLOUDY    48  40  73 N6        30.23S
NEW PHILLY     MOCLDY    49  41  74 VRB6      30.23S
$$



USA.gov is the U.S. government's official web portal to all federal, state and local government web resources and services.